Wind_Speed
19 17 15 13 12 10 9 8 7 7 7 7 7 7 6 5 5 5 4 4 4 4 3 2 2 2 2 2 2 3 4 5 6 7 8 8 9 10 12 13 14 14 15
21 19 17 15 13 12 10 9 9 8 8 8 8 7 7 6 6 6 5 5 4 4 3 3 2 2 1 1 1 2 3 4 5 6 7 8 9 11 12 13 14 14 15
22 20 18 16 15 13 12 11 10 9 9 9 9 8 8 7 7 6 6 5 5 4 4 3 2 2 1 1 0 1 2 3 4 5 6 8 9 11 12 13 14 14 15
24 22 19 17 16 15 13 12 11 11 10 10 9 9 9 8 8 7 7 6 5 5 4 4 3 3 2 1 1 1 2 3 4 5 6 8 9 11 12 13 14 15 16
25 23 21 19 17 16 14 13 12 12 11 11 10 10 10 9 9 8 7 7 6 6 5 5 4 3 3 2 1 1 2 3 4 5 6 8 9 11 12 13 14 15 16
26 25 23 21 19 17 16 14 13 13 12 12 12 11 11 10 10 9 8 8 7 7 6 5 5 4 4 3 2 2 2 3 4 5 7 8 9 11 12 14 15 16 17
28 26 24 22 20 19 17 16 15 14 13 13 13 13 12 12 11 10 9 8 8 7 7 6 5 5 4 4 3 3 3 4 5 6 7 8 10 11 13 15 16 17 18
29 27 25 23 21 20 18 17 16 15 14 14 14 14 13 13 12 11 10 9 9 8 7 7 6 6 6 5 4 4 4 5 5 7 8 9 11 12 14 15 17 18 19
31 28 26 24 22 21 20 18 18 17 16 15 15 15 14 14 13 12 12 10 10 9 8 8 7 7 6 6 6 5 6 6 7 8 9 10 12 13 15 16 18 19 20
32 30 28 26 24 22 21 20 19 18 17 16 16 16 16 15 15 14 13 12 11 10 9 9 8 8 7 7 7 7 7 8 9 9 10 12 13 15 16 17 19 20 21
33 31 29 27 26 24 22 21 21 19 18 18 18 17 17 17 16 15 15 13 12 11 11 10 10 9 9 9 9 9 9 10 10 11 12 13 15 16 18 19 20 21 22
33 32 31 29 27 25 24 23 22 21 20 20 19 19 18 18 17 16 16 15 14 13 12 12 11 11 11 11 11 11 11 12 12 13 14 15 16 18 19 20 22 23 24
36 35 33 30 28 27 25 24 24 23 22 21 20 20 20 19 19 18 17 16 15 15 14 14 13 13 13 12 12 13 13 14 14 15 16 17 18 20 21 22 23 25 25
38 36 34 32 30 28 27 25 25 24 23 23 22 21 21 21 20 19 19 18 17 16 16 15 15 15 15 14 15 15 15 16 17 17 18 19 20 21 23 24 25 26 27
40 38 35 33 32 30 28 27 26 26 25 24 23 23 23 22 22 21 20 20 19 18 18 18 17 17 17 17 17 17 18 18 19 20 21 21 22 24 25 25 26 27 28
41 39 36 35 34 32 31 29 28 27 26 25 25 24 24 24 23 23 22 22 21 21 21 20 20 20 20 20 20 20 20 21 22 22 23 24 25 26 27 28 28 29 30
43 41 39 38 36 35 34 32 30 28 27 26 26 25 25 25 25 25 25 24 24 23 23 23 23 22 22 22 22 23 23 24 24 25 25 26 27 28 29 30 31 31 32
45 44 43 41 39 37 36 34 32 31 29 28 27 27 27 26 26 27 27 27 26 26 26 26 26 25 25 25 25 25 26 26 27 27 28 29 30 31 31 32 32 33 33
48 46 45 43 41 40 38 37 35 33 31 30 29 29 28 28 28 28 29 29 29 29 29 29 28 28 28 28 28 28 29 29 30 30 31 31 32 33 33 34 34 35 35
49 48 46 45 44 43 42 40 39 36 34 33 32 31 31 30 30 31 31 31 31 31 31 31 31 31 30 30 31 31 31 32 33 34 34 34 35 35 35 36 36 36 36
50 49 47 47 45 44 44 42 41 38 36 35 34 34 34 33 33 32 33 33 33 33 33 33 33 33 33 33 33 34 34 35 35 36 36 37 38 38 38 38 37 37 37
50 49 49 48 47 44 44 43 42 41 39 38 37 36 35 35 35 35 35 35 35 36 36 36 36 36 37 37 37 37 36 36 36 37 38 39 39 39 39 39 39 39 39
51 50 48 48 48 46 45 45 44 43 42 41 40 39 38 37 37 37 37 37 37 37 37 37 37 37 38 39 39 38 38 38 38 39 39 39 40 40 40 40 40 40 40
52 52 51 50 49 49 47 46 45 45 43 42 41 41 40 40 40 40 40 40 39 39 39 39 39 39 39 39 39 40 40 41 40 41 40 41 41 41 41 41 41 40 40
50 51 52 51 50 50 48 47 47 47 45 45 44 44 44 43 43 42 42 42 41 41 42 42 42 41 41 41 42 43 43 44 44 44 43 43 43 42 42 42 41 41 41
50 50 51 51 51 50 49 48 48 47 46 46 46 46 46 46 45 45 45 44 44 44 43 43 43 43 43 43 44 45 46 46 45 46 46 45 44 44 43 43 42 42 42
Wind_Direction
215 215 216 217 215 215 216 219 220 222 225 229 233 234 233 233 236 246 260 275 283 290 294 304 318 340 9 37 51 55 57 55 50 45 41 36 31 27 24 21 17 14 10
214 214 216 217 216 216 218 219 219 221 225 229 231 232 231 232 238 249 259 268 274 278 282 292 298 306 328 16 58 63 59 53 47 40 36 31 26 22 18 15 12 9 6
215 215 216 217 217 217 218 220 220 222 225 228 230 231 232 232 237 245 253 261 267 271 277 284 284 281 281 282 66 62 52 43 37 32 28 24 20 16 12 9 7 4 1
214 216 216 217 217 217 219 220 221 222 224 227 228 229 231 232 237 242 249 254 260 265 270 272 270 267 266 261 270 9 19 21 20 18 17 14 11 8 5 3 1 360 358
214 216 218 218 218 218 219 220 221 223 224 226 227 228 231 232 235 241 247 250 254 258 262 265 263 261 260 262 273 315 347 0 3 4 5 4 2 360 359 358 356 355 353
215 217 218 219 219 219 220 220 222 223 224 226 227 229 231 232 235 239 244 248 249 252 257 259 259 259 261 264 270 292 322 339 347 352 353 354 354 354 354 353 352 351 349
216 217 218 219 220 220 220 221 223 224 225 226 228 230 231 232 235 238 241 244 246 249 251 253 255 258 260 261 265 282 304 322 334 340 343 345 347 347 347 348 347 346 345
215 217 219 220 220 220 221 222 224 226 226 227 228 230 230 232 235 237 239 242 246 248 249 251 252 254 256 258 266 281 296 310 322 330 334 337 339 340 341 342 342 342 341
214 217 219 221 221 221 222 223 225 227 227 228 229 229 231 232 234 237 239 242 246 248 249 250 252 255 256 261 269 279 290 302 312 320 326 330 333 335 336 336 337 337 337
216 218 220 221 222 223 225 226 226 227 228 228 229 230 231 233 235 238 240 243 246 248 250 251 253 255 259 265 272 280 288 297 305 313 319 323 327 330 331 332 333 333 333
217 220 222 223 224 225 226 228 228 228 229 230 231 232 233 235 237 240 242 244 247 249 252 254 255 258 262 268 273 280 288 295 303 310 314 318 322 325 327 328 329 329 329
221 222 223 224 225 226 227 229 231 231 231 232 233 234 235 237 239 241 243 245 247 249 252 256 258 261 265 270 275 280 286 293 300 306 310 314 317 319 322 324 326 326 326
222 224 225 225 226 227 229 231 232 234 234 234 235 237 238 239 241 242 244 246 248 251 253 257 261 264 268 272 276 281 286 292 297 302 306 310 313 315 318 320 322 323 323
220 222 224 227 229 230 231 232 234 235 235 236 237 239 241 242 243 245 246 248 250 252 255 258 263 266 270 274 278 283 288 293 297 300 304 307 310 313 315 317 319 320 320
221 223 224 227 230 231 233 234 234 235 237 238 239 241 243 244 246 247 248 250 252 255 258 260 263 267 271 275 280 285 289 293 296 299 302 305 308 310 312 314 315 316 317
221 224 226 228 231 233 234 235 236 237 238 240 241 244 246 247 249 250 251 253 255 258 261 263 265 268 272 276 280 283 287 290 294 297 300 303 305 308 310 311 312 313 314
221 224 226 228 230 232 233 235 237 238 240 241 243 245 248 249 251 253 254 256 258 260 262 265 267 270 273 276 279 282 286 289 293 296 299 301 303 305 307 308 309 310 312
223 224 226 227 229 231 233 236 238 240 241 244 246 248 249 251 253 255 256 258 260 262 264 265 267 270 273 276 279 282 285 288 292 295 297 299 301 303 305 306 307 308 309
224 226 227 228 231 232 235 237 239 240 242 245 248 250 252 253 255 257 258 260 262 264 265 267 269 271 273 276 279 282 285 288 291 293 295 297 299 301 302 303 304 305 307
225 226 228 230 232 233 234 237 239 241 244 247 250 252 254 255 257 259 261 262 264 266 268 269 270 272 275 277 280 282 285 288 289 292 294 296 298 299 301 302 303 304 305
227 228 229 232 234 235 236 237 240 243 246 249 252 253 254 256 258 260 262 264 265 268 270 271 273 274 275 277 280 282 285 287 289 291 293 295 297 298 299 300 302 302 303
229 230 231 234 236 238 238 240 241 244 246 249 252 254 256 257 258 261 264 266 268 270 270 271 273 274 276 277 280 282 283 285 288 291 293 294 295 297 298 299 300 301 301
230 231 232 234 236 238 240 241 242 245 246 249 252 254 256 258 260 262 263 266 269 270 271 272 274 275 276 278 279 281 283 284 286 289 290 292 293 295 296 297 298 298 299
231 233 235 236 238 239 240 242 244 246 248 250 252 254 256 258 260 263 263 266 268 270 271 271 274 275 276 277 279 281 283 284 286 288 288 290 292 293 294 295 295 296 296
231 233 236 238 239 241 243 244 245 247 250 252 253 256 257 259 260 262 264 265 268 270 272 272 274 275 276 277 279 281 282 284 287 288 288 289 290 291 292 294 294 294 294
231 233 236 238 240 242 243 245 246 248 251 253 255 256 258 259 260 262 264 265 268 270 272 273 274 276 277 278 280 282 283 285 287 288 288 288 289 290 291 292 293 293 293
Height
5879 5881 5883 5884 5886 5888 5889 5890 5891 5892 5893 5894 5895 5896 5896 5896 5897 5897 5897 5897 5896 5896 5896 5895 5895 5894 5894 5893 5892 5892 5891 5890 5890 5889 5888 5887 5885 5884 5883 5881 5880 5878 5876
5876 5878 5881 5883 5884 5886 5888 5889 5890 5891 5892 5893 5894 5895 5895 5896 5896 5896 5896 5896 5896 5895 5895 5895 5895 5894 5894 5893 5892 5892 5891 5890 5890 5889 5888 5886 5885 5884 5883 5881 5879 5877 5876
5873 5876 5878 5880 5883 5884 5886 5887 5889 5890 5891 5892 5893 5894 5894 5895 5895 5895 5895 5895 5895 5895 5895 5894 5894 5894 5893 5893 5892 5892 5891 5890 5889 5889 5887 5886 5885 5884 5882 5881 5879 5877 5875
5871 5873 5876 5878 5880 5882 5884 5886 5887 5889 5890 5891 5892 5893 5893 5894 5894 5894 5895 5895 5894 5894 5894 5894 5894 5893 5893 5892 5892 5891 5891 5890 5889 5888 5887 5886 5885 5883 5881 5880 5878 5876 5874
5868 5871 5873 5876 5878 5880 5882 5884 5886 5887 5888 5889 5890 5891 5892 5893 5893 5894 5894 5894 5894 5894 5893 5893 5893 5893 5892 5892 5891 5891 5890 5889 5889 5888 5887 5885 5884 5882 5881 5879 5877 5875 5873
5864 5867 5870 5873 5875 5878 5880 5882 5884 5885 5887 5888 5889 5890 5891 5891 5892 5892 5893 5893 5893 5893 5892 5892 5892 5892 5892 5891 5891 5890 5889 5889 5888 5887 5886 5885 5883 5882 5880 5878 5876 5874 5871
5861 5864 5867 5870 5873 5875 5878 5880 5882 5883 5885 5886 5887 5888 5889 5890 5891 5891 5891 5891 5891 5891 5891 5891 5891 5891 5891 5890 5890 5889 5889 5888 5887 5886 5885 5884 5882 5880 5879 5877 5875 5872 5870
5857 5860 5864 5867 5870 5872 5875 5877 5879 5881 5883 5884 5885 5887 5887 5888 5889 5889 5890 5890 5890 5890 5890 5890 5890 5890 5890 5889 5889 5888 5888 5887 5886 5885 5884 5882 5881 5879 5877 5875 5873 5871 5868
5852 5857 5860 5864 5867 5869 5872 5874 5877 5879 5880 5882 5883 5884 5885 5886 5887 5888 5888 5888 5889 5889 5889 5889 5889 5888 5888 5888 5887 5887 5886 5885 5885 5883 5882 5881 5879 5877 5875 5873 5871 5869 5866
5848 5852 5856 5860 5863 5866 5869 5872 5874 5876 5878 5879 5881 5882 5883 5884 5885 5886 5886 5887 5887 5887 5887 5887 5887 5887 5886 5886 5886 5885 5884 5884 5883 5882 5880 5879 5877 5875 5874 5871 5869 5866 5864
5844 5848 5852 5856 5860 5863 5866 5868 5871 5873 5875 5877 5878 5879 5881 5882 5883 5883 5884 5885 5885 5885 5885 5885 5885 5885 5884 5884 5884 5883 5882 5881 5881 5879 5878 5877 5875 5873 5871 5869 5867 5864 5861
5840 5844 5849 5852 5856 5859 5862 5865 5868 5870 5872 5874 5875 5876 5878 5879 5880 5881 5882 5882 5883 5883 5883 5883 5883 5883 5882 5882 5881 5881 5880 5879 5878 5877 5876 5874 5872 5870 5868 5866 5864 5861 5858
5835 5840 5844 5848 5852 5855 5859 5861 5864 5866 5868 5870 5872 5873 5875 5876 5877 5878 5879 5879 5880 5880 5880 5880 5880 5880 5880 5879 5879 5878 5877 5876 5875 5874 5873 5871 5869 5867 5865 5863 5860 5857 5855
5829 5834 5839 5843 5848 5851 5854 5857 5860 5863 5865 5867 5869 5870 5871 5873 5874 5875 5876 5876 5877 5877 5877 5877 5877 5877 5877 5876 5876 5875 5874 5873 5872 5871 5869 5868 5866 5864 5862 5859 5857 5854 5851
5824 5829 5834 5838 5842 5846 5850 5853 5856 5858 5861 5863 5865 5866 5868 5869 5870 5871 5872 5873 5873 5874 5874 5874 5874 5874 5873 5873 5872 5872 5871 5869 5868 5867 5865 5864 5862 5860 5858 5855 5852 5849 5846
5819 5824 5828 5833 5837 5841 5845 5848 5851 5854 5856 5858 5860 5862 5864 5865 5866 5867 5868 5869 5869 5870 5870 5870 5870 5870 5870 5869 5868 5868 5867 5866 5864 5863 5861 5859 5857 5855 5853 5850 5848 5845 5842
5813 5818 5823 5827 5831 5835 5839 5842 5845 5848 5851 5854 5856 5857 5859 5861 5862 5863 5864 5865 5865 5865 5866 5866 5866 5866 5865 5865 5864 5863 5862 5861 5860 5858 5857 5855 5853 5850 5848 5845 5843 5840 5836
5806 5811 5816 5821 5825 5829 5833 5837 5840 5843 5846 5848 5850 5852 5854 5856 5857 5858 5859 5860 5860 5861 5861 5861 5861 5861 5860 5860 5859 5858 5857 5856 5854 5853 5851 5849 5847 5845 5842 5840 5837 5834 5831
5799 5804 5809 5814 5819 5823 5827 5830 5834 5837 5840 5842 5845 5847 5849 5850 5851 5852 5853 5854 5855 5855 5855 5855 5855 5855 5855 5854 5853 5852 5851 5850 5848 5847 5845 5843 5841 5839 5836 5834 5831 5828 5825
5792 5797 5802 5807 5811 5815 5819 5823 5827 5831 5834 5836 5838 5841 5842 5844 5845 5846 5847 5848 5849 5849 5849 5849 5849 5849 5848 5848 5847 5846 5845 5844 5842 5840 5839 5837 5834 5832 5829 5827 5824 5821 5818
5785 5790 5795 5799 5803 5807 5812 5816 5820 5824 5827 5829 5832 5834 5835 5837 5838 5839 5840 5841 5842 5842 5842 5842 5842 5842 5841 5841 5840 5839 5838 5837 5835 5833 5831 5829 5827 5824 5822 5819 5817 5814 5811
5778 5783 5788 5792 5796 5800 5805 5809 5813 5816 5819 5822 5824 5826 5828 5830 5831 5832 5833 5834 5835 5835 5835 5835 5835 5834 5834 5833 5833 5832 5831 5830 5828 5826 5823 5821 5819 5816 5814 5811 5809 5806 5803
5770 5776 5780 5785 5789 5793 5797 5801 5804 5807 5810 5814 5817 5819 5820 5822 5823 5825 5825 5826 5827 5827 5827 5827 5826 5826 5826 5825 5824 5823 5823 5822 5821 5819 5816 5813 5811 5808 5806 5803 5800 5797 5794
5762 5767 5772 5777 5781 5785 5789 5792 5795 5799 5802 5806 5808 5810 5812 5813 5815 5816 5817 5817 5818 5818 5818 5818 5818 5818 5817 5816 5815 5814 5813 5812 5811 5810 5808 5805 5802 5800 5797 5795 5792 5789 5786
5754 5759 5764 5768 5773 5777 5781 5784 5787 5790 5794 5796 5798 5801 5802 5804 5805 5807 5807 5808 5809 5809 5809 5809 5809 5809 5808 5807 5806 5805 5804 5802 5800 5799 5798 5796 5793 5791 5788 5785 5783 5780 5777
5745 5750 5755 5759 5764 5768 5771 5775 5778 5781 5784 5787 5789 5791 5793 5795 5796 5797 5798 5798 5799 5800 5800 5800 5799 5799 5798 5798 5796 5795 5794 5793 5791 5789 5787 5785 5783 5781 5778 5776 5773 5770 5767